Flag Weather past 2 weeks in Timișoara, Romania

Now
36 °F

Overcast.


Feels Like: 36 °F
Forecast: 32 / 46 °F
Wind: 1 mph from North

Location: Timisoara Airport

Current Time: Nov 27, 2014 at 2:20:39 AM

Latest Report: Nov 27, 2014 at 1:30 AM


Visibility: N/A

Pressure: 30.21 "Hg

Humidity: 81%

Dew point: 30 °F

Location of TimișoaraLocation

Historic Weather in Timișoara — Graph

°F

Timișoara temperature yesterday

Maximum temperature yesterday: 41 °F (at 12:00 PM)
Minimum temperature yesterday: 34 °F (at 6:30 AM)
Average temperature yesterday: 38 °F

Past Weeks' High & Low Weather Summary

 TemperatureHumidityPressure
High64 °F (Nov 13, 2:30 PM)100% (Nov 12, 4:30 AM)30.42 "Hg (Nov 12, 4:30 AM)
Low28 °F (Nov 24, 11:30 PM)49% (Nov 13, 3:00 PM)29.80 "Hg (Nov 13, 4:30 AM)
Average45 °F88%30.09 "Hg
* Reported Nov 12 1:00 AM — Nov 27 1:00 AM, Timișoara, Weather by CustomWeather, © 2014

Note: Actual official high and low records may vary slightly from our data, if they occured in-between our weather recording intervals... More about our weather records

Advertising

Timișoara weather history for previous 24 hours

 ConditionsComfort  
Time TempWeatherWind HumidityBarometerVisibility
1:00 AM
Nov 27
36 °FOvercast.2 mph81%30.21 "HgN/A
12:30 AM36 °FMostly cloudy.No wind81%30.21 "HgN/A
12:00 AM36 °FOvercast.No wind93%30.21 "HgN/A
11:30 PM
Nov 26
37 °FOvercast.1 mph81%30.24 "HgN/A
11:00 PM37 °FOvercast.2 mph81%30.24 "HgN/A
10:30 PM37 °FOvercast.2 mph81%30.21 "HgN/A
10:00 PM37 °FOvercast.2 mph81%30.21 "HgN/A
9:30 PM37 °FOvercast.3 mph75%30.21 "HgN/A
9:00 PM37 °FOvercast.2 mph87%30.21 "HgN/A
8:30 PM37 °FOvercast.1 mph87%30.21 "HgN/A
8:00 PM37 °FOvercast.No wind87%30.21 "HgN/A
7:30 PM37 °FOvercast.1 mph81%30.21 "HgN/A
7:00 PM37 °FOvercast.3 mph81%30.24 "HgN/A
6:30 PM37 °FOvercast.2 mph87%30.24 "Hg5 mi
6:00 PM37 °FOvercast.2 mph81%30.24 "Hg5 mi
5:30 PM37 °FOvercast.3 mph81%30.24 "Hg5 mi
5:00 PM39 °FOvercast.2 mph75%30.24 "HgN/A
4:30 PM39 °FPartly sunny.2 mph75%30.24 "HgN/A
4:00 PM39 °FPartly sunny.3 mph70%30.24 "HgN/A
3:30 PM39 °FBroken clouds.1 mph70%30.24 "HgN/A
3:00 PM39 °FPartly sunny.2 mph70%30.24 "HgN/A
2:30 PM39 °FPartly sunny.2 mph70%30.24 "HgN/A
2:00 PM39 °FPartly sunny.3 mph70%30.24 "HgN/A
1:30 PM39 °FPartly sunny.2 mph70%30.27 "HgN/A
1:00 PM39 °FPartly sunny.6 mph70%30.27 "HgN/A
12:30 PM39 °FPartly sunny.5 mph70%30.27 "HgN/A
12:00 PM41 °FPartly sunny.3 mph66%30.27 "HgN/A
11:30 AM39 °FBroken clouds.5 mph70%30.27 "HgN/A
11:00 AM39 °FPartly sunny.6 mph70%30.30 "HgN/A
10:30 AM39 °FPartly sunny.6 mph75%30.30 "Hg6 mi
10:00 AM37 °FPartly sunny.3 mph87%30.30 "Hg4 mi
9:30 AM36 °FFog.3 mph100%30.30 "Hg1 mi
9:00 AM36 °FFog.2 mph100%30.30 "Hg1 mi
8:30 AM36 °FFog.3 mph100%30.27 "Hg1 mi
8:00 AM36 °FFog.6 mph100%30.27 "Hg2 mi
7:30 AM36 °FPassing clouds.2 mph100%30.27 "Hg4 mi
7:00 AM36 °FPassing clouds.2 mph93%30.27 "HgN/A
6:30 AM34 °FPassing clouds.2 mph100%30.27 "HgN/A
6:00 AM36 °FPassing clouds.1 mph93%30.27 "HgN/A
5:30 AM36 °FPassing clouds.2 mph93%30.27 "HgN/A
5:00 AM36 °FPassing clouds.2 mph93%30.27 "HgN/A
4:30 AM36 °FPassing clouds.3 mph93%30.27 "HgN/A
4:00 AM37 °FPassing clouds.2 mph87%30.27 "HgN/A
3:30 AM37 °FPassing clouds.1 mph93%30.27 "HgN/A
3:00 AM37 °FPassing clouds.2 mph93%30.27 "HgN/A
2:30 AM37 °FPassing clouds.No wind93%30.27 "HgN/A
2:00 AM37 °FPassing clouds.2 mph93%30.27 "HgN/A
Weather by CustomWeather, © 2014

See weather overviewHow to use our weather pages